Time,TemperatureF,DewpointF,PressureIn,WindDirection,WindDirectionDegrees,WindSpeedMPH,WindSpeedGustMPH,Humidity,HourlyPrecipIn,Conditions,Clouds,dailyrainin,SoftwareType,DateUTC
2013-05-07 00:01:00,52.5,47.1,30.17,West,281,0.0,0.0,82,0.00,,,0.00,meteohub,2013-05-07 04:01:00,
2013-05-07 00:02:00,52.5,47.1,30.17,West,281,0.0,0.0,82,0.00,,,0.00,meteohub,2013-05-07 04:02:00,
2013-05-07 00:07:00,52.2,47.1,30.17,West,281,0.0,0.0,83,0.00,,,0.00,meteohub,2013-05-07 04:07:00,
2013-05-07 00:12:00,52.0,46.9,30.17,West,281,0.0,0.0,83,0.00,,,0.00,meteohub,2013-05-07 04:12:00,
2013-05-07 00:17:00,52.0,46.9,30.16,West,281,0.0,0.0,83,0.00,,,0.00,meteohub,2013-05-07 04:17:00,
2013-05-07 00:22:00,51.8,47.1,30.16,West,281,0.0,0.0,84,0.00,,,0.00,meteohub,2013-05-07 04:22:00,
2013-05-07 00:27:00,51.4,46.8,30.16,West,281,0.0,0.0,84,0.00,,,0.00,meteohub,2013-05-07 04:27:00,
2013-05-07 00:32:00,50.5,46.6,30.16,West,281,0.0,0.0,86,0.00,,,0.00,meteohub,2013-05-07 04:32:00,
2013-05-07 00:37:00,50.2,46.4,30.16,West,281,0.0,0.0,87,0.00,,,0.00,meteohub,2013-05-07 04:37:00,
2013-05-07 00:42:00,49.8,46.4,30.16,West,281,0.0,0.0,88,0.00,,,0.00,meteohub,2013-05-07 04:42:00,
2013-05-07 00:47:00,50.0,46.6,30.16,West,281,0.0,0.0,88,0.00,,,0.00,meteohub,2013-05-07 04:47:00,
2013-05-07 00:52:00,50.0,46.2,30.16,West,281,0.0,0.0,87,0.00,,,0.00,meteohub,2013-05-07 04:52:00,
2013-05-07 00:57:00,50.0,46.2,30.15,West,281,0.0,0.0,87,0.00,,,0.00,meteohub,2013-05-07 04:57:00,
2013-05-07 01:02:00,49.8,46.0,30.15,West,281,0.0,0.0,87,0.00,,,0.00,meteohub,2013-05-07 05:02:00,
2013-05-07 01:07:00,50.2,46.4,30.15,West,281,0.0,0.0,87,0.00,,,0.00,meteohub,2013-05-07 05:07:00,
2013-05-07 01:12:00,49.6,46.2,30.15,West,281,0.0,0.0,88,0.00,,,0.00,meteohub,2013-05-07 05:12:00,
2013-05-07 01:17:00,49.3,45.9,30.15,West,281,0.0,0.0,88,0.00,,,0.00,meteohub,2013-05-07 05:17:00,
2013-05-07 01:22:00,49.6,45.9,30.15,West,281,0.0,0.0,87,0.00,,,0.00,meteohub,2013-05-07 05:22:00,
2013-05-07 01:27:00,49.3,45.9,30.15,West,281,0.0,0.0,88,0.00,,,0.00,meteohub,2013-05-07 05:27:00,
2013-05-07 01:32:00,48.7,45.7,30.15,West,281,0.0,0.0,89,0.00,,,0.00,meteohub,2013-05-07 05:32:00,
2013-05-07 01:37:00,48.7,45.7,30.15,West,281,0.0,0.0,89,0.00,,,0.00,meteohub,2013-05-07 05:37:00,
2013-05-07 01:42:00,48.6,45.5,30.15,West,281,0.0,0.0,89,0.00,,,0.00,meteohub,2013-05-07 05:42:00,
2013-05-07 01:47:00,48.2,45.3,30.15,West,281,0.0,0.0,90,0.00,,,0.00,meteohub,2013-05-07 05:47:00,
2013-05-07 01:52:00,48.0,45.1,30.15,West,281,0.0,0.0,90,0.00,,,0.00,meteohub,2013-05-07 05:52:00,
2013-05-07 01:57:00,47.8,45.3,30.15,West,281,0.0,0.0,91,0.00,,,0.00,meteohub,2013-05-07 05:57:00,
2013-05-07 02:02:00,48.0,45.5,30.15,West,281,0.0,0.0,91,0.00,,,0.00,meteohub,2013-05-07 06:02:00,
2013-05-07 02:07:00,48.6,45.7,30.14,West,281,0.0,0.0,90,0.00,,,0.00,meteohub,2013-05-07 06:07:00,
2013-05-07 02:12:00,48.4,45.3,30.15,West,281,0.0,0.0,89,0.00,,,0.00,meteohub,2013-05-07 06:12:00,
2013-05-07 02:17:00,48.2,45.1,30.15,West,281,0.0,0.0,89,0.00,,,0.00,meteohub,2013-05-07 06:17:00,
2013-05-07 02:22:00,47.8,45.0,30.14,West,281,0.0,0.0,90,0.00,,,0.00,meteohub,2013-05-07 06:22:00,
2013-05-07 02:27:00,48.0,45.1,30.14,West,281,0.0,0.0,90,0.00,,,0.00,meteohub,2013-05-07 06:27:00,
2013-05-07 02:32:00,48.0,44.6,30.14,West,281,0.0,0.0,88,0.00,,,0.00,meteohub,2013-05-07 06:32:00,
2013-05-07 02:37:00,47.8,44.8,30.14,West,281,0.0,0.0,89,0.00,,,0.00,meteohub,2013-05-07 06:37:00,
2013-05-07 02:42:00,47.5,44.4,30.14,West,281,0.0,0.0,89,0.00,,,0.00,meteohub,2013-05-07 06:42:00,
2013-05-07 02:47:00,46.9,44.2,30.14,West,281,0.0,0.0,90,0.00,,,0.00,meteohub,2013-05-07 06:47:00,
2013-05-07 02:52:00,46.8,44.2,30.14,West,281,0.0,0.0,91,0.00,,,0.00,meteohub,2013-05-07 06:52:00,
2013-05-07 02:57:00,46.4,43.9,30.14,West,281,0.0,0.0,91,0.00,,,0.00,meteohub,2013-05-07 06:57:00,
2013-05-07 03:02:00,46.6,44.1,30.14,West,281,0.0,0.0,91,0.00,,,0.00,meteohub,2013-05-07 07:02:00,
2013-05-07 03:07:00,46.4,43.9,30.14,West,281,0.0,0.0,91,0.00,,,0.00,meteohub,2013-05-07 07:07:00,
2013-05-07 03:12:00,45.9,43.3,30.14,West,281,0.0,0.0,91,0.00,,,0.00,meteohub,2013-05-07 07:12:00,
2013-05-07 03:17:00,45.7,43.5,30.14,West,281,0.0,0.0,92,0.00,,,0.00,meteohub,2013-05-07 07:17:00,
2013-05-07 03:22:00,45.5,43.3,30.14,West,281,0.0,0.0,92,0.00,,,0.00,meteohub,2013-05-07 07:22:00,
2013-05-07 03:27:00,45.3,43.3,30.14,West,281,0.0,0.0,93,0.00,,,0.00,meteohub,2013-05-07 07:27:00,
2013-05-07 03:32:00,45.1,43.0,30.14,West,281,0.0,0.0,92,0.00,,,0.00,meteohub,2013-05-07 07:32:00,
2013-05-07 03:37:00,45.1,43.2,30.14,West,281,0.0,0.0,93,0.00,,,0.00,meteohub,2013-05-07 07:37:00,
2013-05-07 03:42:00,45.3,43.3,30.14,West,281,0.0,0.0,93,0.00,,,0.00,meteohub,2013-05-07 07:42:00,
2013-05-07 03:47:00,45.1,43.2,30.14,West,281,0.0,0.0,93,0.00,,,0.00,meteohub,2013-05-07 07:47:00,
2013-05-07 03:52:00,45.0,43.0,30.14,West,281,0.0,1.0,93,0.00,,,0.00,meteohub,2013-05-07 07:52:00,
2013-05-07 03:57:00,45.0,43.0,30.14,West,281,0.0,1.0,93,0.00,,,0.00,meteohub,2013-05-07 07:57:00,
2013-05-07 04:02:00,44.4,42.4,30.14,West,281,0.0,1.0,93,0.00,,,0.00,meteohub,2013-05-07 08:02:00,
2013-05-07 04:07:00,44.2,42.3,30.14,West,281,0.0,0.0,93,0.00,,,0.00,meteohub,2013-05-07 08:07:00,
2013-05-07 04:12:00,44.2,42.3,30.14,West,281,0.0,0.0,93,0.00,,,0.00,meteohub,2013-05-07 08:12:00,
2013-05-07 04:17:00,44.4,42.8,30.14,West,281,0.0,0.0,94,0.00,,,0.00,meteohub,2013-05-07 08:17:00,
2013-05-07 04:22:00,44.8,43.2,30.14,West,281,0.0,0.0,94,0.00,,,0.00,meteohub,2013-05-07 08:22:00,
2013-05-07 04:27:00,44.8,43.2,30.14,West,281,0.0,1.0,94,0.00,,,0.00,meteohub,2013-05-07 08:27:00,
2013-05-07 04:32:00,44.8,43.2,30.14,West,281,0.0,1.0,94,0.00,,,0.00,meteohub,2013-05-07 08:32:00,
2013-05-07 04:37:00,44.8,43.2,30.14,West,281,0.0,1.0,94,0.00,,,0.00,meteohub,2013-05-07 08:37:00,
2013-05-07 04:42:00,44.4,42.8,30.14,West,281,0.0,0.0,94,0.00,,,0.00,meteohub,2013-05-07 08:42:00,
2013-05-07 04:47:00,44.4,42.8,30.14,West,281,0.0,0.0,94,0.00,,,0.00,meteohub,2013-05-07 08:47:00,
2013-05-07 04:52:00,44.2,42.3,30.14,West,281,0.0,0.0,93,0.00,,,0.00,meteohub,2013-05-07 08:52:00,
2013-05-07 04:57:00,44.2,42.3,30.14,West,281,0.0,0.0,93,0.00,,,0.00,meteohub,2013-05-07 08:57:00,
2013-05-07 05:02:00,44.2,42.1,30.14,West,281,0.0,0.0,92,0.00,,,0.00,meteohub,2013-05-07 09:02:00,
2013-05-07 05:07:00,43.5,41.4,30.14,West,281,0.0,0.0,92,0.00,,,0.00,meteohub,2013-05-07 09:07:00,
2013-05-07 05:12:00,43.3,41.2,30.14,West,281,0.0,0.0,92,0.00,,,0.00,meteohub,2013-05-07 09:12:00,
2013-05-07 05:17:00,43.3,41.5,30.14,West,281,0.0,0.0,93,0.00,,,0.00,meteohub,2013-05-07 09:17:00,
2013-05-07 05:22:00,43.3,41.5,30.14,West,281,0.0,0.0,93,0.00,,,0.00,meteohub,2013-05-07 09:22:00,
2013-05-07 05:27:00,43.2,41.4,30.14,West,281,0.0,0.0,93,0.00,,,0.00,meteohub,2013-05-07 09:27:00,
2013-05-07 05:32:00,43.2,41.4,30.14,West,281,0.0,0.0,93,0.00,,,0.00,meteohub,2013-05-07 09:32:00,
2013-05-07 05:37:00,43.0,41.2,30.15,West,281,0.0,0.0,93,0.00,,,0.00,meteohub,2013-05-07 09:37:00,
2013-05-07 05:42:00,43.0,41.2,30.15,West,281,0.0,0.0,93,0.00,,,0.00,meteohub,2013-05-07 09:42:00,
2013-05-07 05:47:00,43.0,41.4,30.15,West,281,0.0,0.0,94,0.00,,,0.00,meteohub,2013-05-07 09:47:00,
2013-05-07 05:52:00,43.2,41.5,30.15,West,281,0.0,0.0,94,0.00,,,0.00,meteohub,2013-05-07 09:52:00,
2013-05-07 05:57:00,43.2,41.4,30.15,West,281,0.0,0.0,93,0.00,,,0.00,meteohub,2013-05-07 09:57:00,
2013-05-07 06:02:00,43.2,41.5,30.15,West,281,0.0,0.0,94,0.00,,,0.00,meteohub,2013-05-07 10:02:00,
2013-05-07 06:07:00,43.5,41.9,30.15,West,281,0.0,0.0,94,0.00,,,0.00,meteohub,2013-05-07 10:07:00,
2013-05-07 06:12:00,43.5,41.9,30.15,West,281,0.0,0.0,94,0.00,,,0.00,meteohub,2013-05-07 10:12:00,
2013-05-07 06:17:00,44.1,42.4,30.15,West,281,0.0,0.0,94,0.00,,,0.00,meteohub,2013-05-07 10:17:00,
2013-05-07 06:22:00,44.4,42.4,30.16,West,281,0.0,0.0,93,0.00,,,0.00,meteohub,2013-05-07 10:22:00,
2013-05-07 06:27:00,45.0,43.0,30.16,West,281,0.0,0.0,93,0.00,,,0.00,meteohub,2013-05-07 10:27:00,
2013-05-07 06:32:00,45.1,43.0,30.16,West,281,0.0,0.0,92,0.00,,,0.00,meteohub,2013-05-07 10:32:00,
2013-05-07 06:37:00,45.3,43.2,30.16,West,281,0.0,0.0,92,0.00,,,0.00,meteohub,2013-05-07 10:37:00,
2013-05-07 06:42:00,46.0,44.1,30.16,West,281,0.0,0.0,93,0.00,,,0.00,meteohub,2013-05-07 10:42:00,
2013-05-07 06:47:00,46.8,44.2,30.16,West,281,0.0,0.0,91,0.00,,,0.00,meteohub,2013-05-07 10:47:00,
2013-05-07 06:52:00,47.5,45.0,30.16,West,281,0.0,0.0,91,0.00,,,0.00,meteohub,2013-05-07 10:52:00,
2013-05-07 06:57:00,48.2,45.3,30.16,West,281,0.0,0.0,90,0.00,,,0.00,meteohub,2013-05-07 10:57:00,
2013-05-07 07:02:00,48.7,45.7,30.16,West,281,0.0,0.0,89,0.00,,,0.00,meteohub,2013-05-07 11:02:00,
2013-05-07 07:07:00,49.3,45.9,30.16,West,281,0.0,0.0,88,0.00,,,0.00,meteohub,2013-05-07 11:07:00,
2013-05-07 07:12:00,49.8,46.0,30.16,West,281,0.0,0.0,87,0.00,,,0.00,meteohub,2013-05-07 11:12:00,
2013-05-07 07:17:00,50.2,46.2,30.16,West,281,0.0,0.0,86,0.00,,,0.00,meteohub,2013-05-07 11:17:00,
2013-05-07 07:22:00,50.4,46.6,30.16,West,281,0.0,0.0,87,0.00,,,0.00,meteohub,2013-05-07 11:22:00,
2013-05-07 07:27:00,51.1,47.1,30.16,West,281,0.0,0.0,86,0.00,,,0.00,meteohub,2013-05-07 11:27:00,
2013-05-07 07:32:00,51.6,47.3,30.16,West,281,0.0,0.0,85,0.00,,,0.00,meteohub,2013-05-07 11:32:00,
2013-05-07 07:37:00,52.2,47.8,30.16,West,281,1.0,0.0,85,0.00,,,0.00,meteohub,2013-05-07 11:37:00,
2013-05-07 07:42:00,52.9,48.2,30.16,West,281,1.0,1.0,84,0.00,,,0.00,meteohub,2013-05-07 11:42:00,
2013-05-07 07:47:00,53.8,48.7,30.16,West,281,0.0,2.0,83,0.00,,,0.00,meteohub,2013-05-07 11:47:00,
2013-05-07 07:52:00,54.3,48.9,30.16,West,281,0.0,2.0,82,0.00,,,0.00,meteohub,2013-05-07 11:52:00,
2013-05-07 07:57:00,55.0,49.3,30.16,West,281,0.0,2.0,81,0.00,,,0.00,meteohub,2013-05-07 11:57:00,
2013-05-07 08:02:00,55.9,49.5,30.16,West,281,1.0,2.0,79,0.00,,,0.00,meteohub,2013-05-07 12:02:00,
2013-05-07 08:07:00,56.7,49.8,30.16,West,281,0.0,2.0,78,0.00,,,0.00,meteohub,2013-05-07 12:07:00,
2013-05-07 08:12:00,57.0,50.2,30.16,West,281,0.0,2.0,78,0.00,,,0.00,meteohub,2013-05-07 12:12:00,
2013-05-07 08:17:00,57.7,50.2,30.16,West,281,0.0,2.0,76,0.00,,,0.00,meteohub,2013-05-07 12:17:00,
2013-05-07 08:22:00,58.8,50.5,30.16,West,281,2.0,2.0,74,0.00,,,0.00,meteohub,2013-05-07 12:22:00,
2013-05-07 08:27:00,59.4,50.4,30.16,West,281,0.0,2.0,72,0.00,,,0.00,meteohub,2013-05-07 12:27:00,
2013-05-07 08:32:00,60.6,50.7,30.16,West,281,0.0,2.0,70,0.00,,,0.00,meteohub,2013-05-07 12:32:00,
2013-05-07 08:37:00,61.0,50.4,30.16,West,281,0.0,2.0,68,0.00,,,0.00,meteohub,2013-05-07 12:37:00,
2013-05-07 08:42:00,61.5,51.3,30.16,West,281,1.0,1.0,69,0.00,,,0.00,meteohub,2013-05-07 12:42:00,
2013-05-07 08:47:00,62.1,50.2,30.16,WNW,290,1.0,1.0,65,0.00,,,0.00,meteohub,2013-05-07 12:47:00,
2013-05-07 08:52:00,62.2,50.4,30.16,WNW,290,1.0,3.0,65,0.00,,,0.00,meteohub,2013-05-07 12:52:00,
2013-05-07 08:57:00,62.8,50.4,30.16,WNW,289,0.0,3.0,64,0.00,,,0.00,meteohub,2013-05-07 12:57:00,
2013-05-07 09:02:00,63.7,50.9,30.16,WNW,289,0.0,3.0,63,0.00,,,0.00,meteohub,2013-05-07 13:02:00,
2013-05-07 09:07:00,64.0,51.3,30.15,WNW,289,1.0,3.0,63,0.00,,,0.00,meteohub,2013-05-07 13:07:00,
2013-05-07 09:12:00,64.8,51.1,30.16,NW,307,0.0,4.0,61,0.00,,,0.00,meteohub,2013-05-07 13:12:00,
2013-05-07 09:17:00,65.7,50.0,30.15,NW,306,1.0,4.0,57,0.00,,,0.00,meteohub,2013-05-07 13:17:00,
2013-05-07 09:22:00,65.3,49.6,30.16,SE,136,1.0,4.0,57,0.00,,,0.00,meteohub,2013-05-07 13:22:00,
2013-05-07 09:27:00,64.9,49.8,30.15,WNW,292,0.0,3.0,58,0.00,,,0.00,meteohub,2013-05-07 13:27:00,
2013-05-07 09:32:00,66.9,51.6,30.15,WNW,292,0.0,5.0,58,0.00,,,0.00,meteohub,2013-05-07 13:32:00,
2013-05-07 09:37:00,67.5,50.7,30.15,WNW,292,0.0,5.0,55,0.00,,,0.00,meteohub,2013-05-07 13:37:00,
2013-05-07 09:42:00,66.9,50.2,30.15,SSE,150,1.0,3.0,55,0.00,,,0.00,meteohub,2013-05-07 13:42:00,
2013-05-07 09:47:00,65.8,50.2,30.15,SSE,148,2.0,3.0,57,0.00,,,0.00,meteohub,2013-05-07 13:47:00,
2013-05-07 09:52:00,68.4,51.6,30.15,South,173,1.0,3.0,55,0.00,,,0.00,meteohub,2013-05-07 13:52:00,
2013-05-07 09:57:00,69.3,51.4,30.15,SE,130,0.0,3.0,53,0.00,,,0.00,meteohub,2013-05-07 13:57:00,
2013-05-07 10:02:00,67.6,49.8,30.15,ESE,123,0.0,2.0,53,0.00,,,0.00,meteohub,2013-05-07 14:02:00,
2013-05-07 10:07:00,67.8,50.5,30.15,SSW,205,1.0,3.0,54,0.00,,,0.00,meteohub,2013-05-07 14:07:00,
2013-05-07 10:12:00,68.0,50.7,30.15,SE,128,0.0,4.0,54,0.00,,,0.00,meteohub,2013-05-07 14:12:00,
2013-05-07 10:17:00,68.7,50.9,30.15,South,191,3.0,4.0,53,0.00,,,0.00,meteohub,2013-05-07 14:17:00,
2013-05-07 10:22:00,70.0,51.1,30.15,West,280,0.0,4.0,51,0.00,,,0.00,meteohub,2013-05-07 14:22:00,
2013-05-07 10:27:00,69.8,52.3,30.15,WSW,252,2.0,5.0,54,0.00,,,0.00,meteohub,2013-05-07 14:27:00,
2013-05-07 10:32:00,72.3,52.2,30.15,WSW,244,0.0,6.0,49,0.00,,,0.00,meteohub,2013-05-07 14:32:00,
2013-05-07 10:37:00,73.2,51.8,30.15,South,169,1.0,6.0,47,0.00,,,0.00,meteohub,2013-05-07 14:37:00,
2013-05-07 10:42:00,70.3,51.4,30.15,SSW,194,0.0,6.0,51,0.00,,,0.00,meteohub,2013-05-07 14:42:00,
2013-05-07 10:47:00,70.2,50.2,30.15,ESE,119,1.0,5.0,49,0.00,,,0.00,meteohub,2013-05-07 14:47:00,
2013-05-07 10:52:00,71.2,50.5,30.15,WNW,296,0.0,6.0,48,0.00,,,0.00,meteohub,2013-05-07 14:52:00,
2013-05-07 10:57:00,71.1,50.9,30.15,SSE,153,2.0,6.0,49,0.00,,,0.00,meteohub,2013-05-07 14:57:00,
2013-05-07 11:02:00,69.8,48.7,30.15,SE,124,2.0,6.0,47,0.00,,,0.00,meteohub,2013-05-07 15:02:00,
2013-05-07 11:07:00,72.9,51.4,30.15,WNW,282,0.0,4.0,47,0.00,,,0.00,meteohub,2013-05-07 15:07:00,
2013-05-07 11:12:00,72.3,50.9,30.15,South,175,1.0,4.0,47,0.00,,,0.00,meteohub,2013-05-07 15:12:00,
2013-05-07 11:17:00,73.0,51.6,30.15,West,259,2.0,3.0,47,0.00,,,0.00,meteohub,2013-05-07 15:17:00,
2013-05-07 11:22:00,74.8,50.2,30.15,West,261,3.0,4.0,42,0.00,,,0.00,meteohub,2013-05-07 15:22:00,
2013-05-07 11:27:00,72.9,50.9,30.15,SE,140,1.0,4.0,46,0.00,,,0.00,meteohub,2013-05-07 15:27:00,
2013-05-07 11:32:00,71.4,50.2,30.15,SE,127,0.0,5.0,47,0.00,,,0.00,meteohub,2013-05-07 15:32:00,
2013-05-07 11:37:00,72.7,50.2,30.14,SW,232,0.0,5.0,45,0.00,,,0.00,meteohub,2013-05-07 15:37:00,
2013-05-07 11:42:00,73.6,51.4,30.14,West,271,1.0,5.0,46,0.00,,,0.00,meteohub,2013-05-07 15:42:00,
2013-05-07 11:47:00,75.6,52.2,30.14,NNE,26,1.0,5.0,44,0.00,,,0.00,meteohub,2013-05-07 15:47:00,
2013-05-07 11:52:00,75.0,53.4,30.14,SSE,167,1.0,5.0,47,0.00,,,0.00,meteohub,2013-05-07 15:52:00,
2013-05-07 11:57:00,74.8,51.4,30.13,South,181,1.0,5.0,44,0.00,,,0.00,meteohub,2013-05-07 15:57:00,
2013-05-07 12:02:00,73.6,51.4,30.13,ESE,119,1.0,5.0,46,0.00,,,0.00,meteohub,2013-05-07 16:02:00,
2013-05-07 12:07:00,74.1,51.4,30.13,WNW,290,1.0,5.0,45,0.00,,,0.00,meteohub,2013-05-07 16:07:00,
2013-05-07 12:12:00,74.8,50.9,30.13,ESE,109,1.0,5.0,43,0.00,,,0.00,meteohub,2013-05-07 16:12:00,
2013-05-07 12:17:00,77.7,54.1,30.13,WNW,288,2.0,5.0,44,0.00,,,0.00,meteohub,2013-05-07 16:17:00,
2013-05-07 12:22:00,77.2,52.3,30.13,West,278,3.0,6.0,42,0.00,,,0.00,meteohub,2013-05-07 16:22:00,
2013-05-07 12:27:00,74.5,51.1,30.13,ENE,69,1.0,6.0,44,0.00,,,0.00,meteohub,2013-05-07 16:27:00,
2013-05-07 12:32:00,74.8,51.4,30.12,SSE,156,2.0,6.0,44,0.00,,,0.00,meteohub,2013-05-07 16:32:00,
2013-05-07 12:37:00,74.1,52.5,30.12,South,169,4.0,6.0,47,0.00,,,0.00,meteohub,2013-05-07 16:37:00,
2013-05-07 12:42:00,74.8,49.6,30.12,WNW,288,4.0,6.0,41,0.00,,,0.00,meteohub,2013-05-07 16:42:00,
2013-05-07 12:47:00,76.6,51.8,30.12,WSW,238,0.0,9.0,42,0.00,,,0.00,meteohub,2013-05-07 16:47:00,
2013-05-07 12:52:00,79.2,52.7,30.12,West,279,0.0,9.0,40,0.00,,,0.00,meteohub,2013-05-07 16:52:00,
2013-05-07 12:57:00,79.5,53.1,30.12,ESE,120,2.0,9.0,40,0.00,,,0.00,meteohub,2013-05-07 16:57:00,
2013-05-07 13:02:00,75.2,53.1,30.12,SE,128,1.0,7.0,46,0.00,,,0.00,meteohub,2013-05-07 17:02:00,
2013-05-07 13:07:00,74.5,54.1,30.12,SSW,194,4.0,7.0,49,0.00,,,0.00,meteohub,2013-05-07 17:07:00,
2013-05-07 13:12:00,74.8,53.2,30.12,SE,144,0.0,7.0,47,0.00,,,0.00,meteohub,2013-05-07 17:12:00,
2013-05-07 13:17:00,73.6,53.2,30.12,SSE,150,2.0,5.0,49,0.00,,,0.00,meteohub,2013-05-07 17:17:00,
2013-05-07 13:22:00,73.0,53.8,30.11,SE,136,1.0,6.0,51,0.00,,,0.00,meteohub,2013-05-07 17:22:00,
2013-05-07 13:27:00,78.3,55.8,30.12,West,264,3.0,6.0,46,0.00,,,0.00,meteohub,2013-05-07 17:27:00,
2013-05-07 13:32:00,78.6,53.6,30.12,West,261,1.0,5.0,42,0.00,,,0.00,meteohub,2013-05-07 17:32:00,
2013-05-07 13:37:00,76.8,53.8,30.11,SW,229,0.0,5.0,45,0.00,,,0.00,meteohub,2013-05-07 17:37:00,
2013-05-07 13:42:00,76.3,53.4,30.11,ESE,116,2.0,5.0,45,0.00,,,0.00,meteohub,2013-05-07 17:42:00,
2013-05-07 13:47:00,76.3,52.7,30.11,SE,126,1.0,6.0,44,0.00,,,0.00,meteohub,2013-05-07 17:47:00,
2013-05-07 13:52:00,75.6,53.2,30.11,SE,133,4.0,6.0,46,0.00,,,0.00,meteohub,2013-05-07 17:52:00,
2013-05-07 13:57:00,76.3,54.0,30.11,SE,144,3.0,6.0,46,0.00,,,0.00,meteohub,2013-05-07 17:57:00,
2013-05-07 14:02:00,77.2,53.6,30.10,WSW,258,1.0,6.0,44,0.00,,,0.00,meteohub,2013-05-07 18:02:00,
2013-05-07 14:07:00,79.5,54.5,30.10,West,280,2.0,5.0,42,0.00,,,0.00,meteohub,2013-05-07 18:07:00,
2013-05-07 14:12:00,77.5,54.0,30.10,SW,227,3.0,4.0,44,0.00,,,0.00,meteohub,2013-05-07 18:12:00,
2013-05-07 14:17:00,77.2,54.9,30.10,SSE,163,1.0,7.0,46,0.00,,,0.00,meteohub,2013-05-07 18:17:00,
2013-05-07 14:22:00,77.2,52.3,30.10,SE,136,3.0,7.0,42,0.00,,,0.00,meteohub,2013-05-07 18:22:00,
2013-05-07 14:27:00,75.4,53.8,30.09,SE,140,1.0,7.0,47,0.00,,,0.00,meteohub,2013-05-07 18:27:00,
2013-05-07 14:32:00,77.2,55.4,30.09,West,266,3.0,5.0,47,0.00,,,0.00,meteohub,2013-05-07 18:32:00,
2013-05-07 14:37:00,76.6,53.1,30.09,East,92,1.0,5.0,44,0.00,,,0.00,meteohub,2013-05-07 18:37:00,
2013-05-07 14:42:00,74.1,52.5,30.09,ESE,119,1.0,5.0,47,0.00,,,0.00,meteohub,2013-05-07 18:42:00,
2013-05-07 14:47:00,74.7,53.1,30.09,ESE,119,0.0,5.0,47,0.00,,,0.00,meteohub,2013-05-07 18:47:00,
2013-05-07 14:52:00,75.6,54.0,30.09,ESE,117,2.0,4.0,47,0.00,,,0.00,meteohub,2013-05-07 18:52:00,
2013-05-07 14:57:00,74.5,53.4,30.08,ESE,115,2.0,4.0,48,0.00,,,0.00,meteohub,2013-05-07 18:57:00,
2013-05-07 15:02:00,73.8,53.4,30.08,East,94,2.0,5.0,49,0.00,,,0.00,meteohub,2013-05-07 19:02:00,
2013-05-07 15:07:00,73.2,53.4,30.08,SE,129,1.0,6.0,50,0.00,,,0.00,meteohub,2013-05-07 19:07:00,
2013-05-07 15:12:00,73.6,53.8,30.08,ESE,113,5.0,6.0,50,0.00,,,0.00,meteohub,2013-05-07 19:12:00,
2013-05-07 15:17:00,73.8,53.4,30.08,SE,134,3.0,6.0,49,0.00,,,0.00,meteohub,2013-05-07 19:17:00,
2013-05-07 15:22:00,73.4,53.6,30.07,SE,125,0.0,8.0,50,0.00,,,0.00,meteohub,2013-05-07 19:22:00,
2013-05-07 15:27:00,75.0,55.0,30.07,ESE,107,1.0,8.0,50,0.00,,,0.00,meteohub,2013-05-07 19:27:00,
2013-05-07 15:32:00,75.7,55.2,30.07,SE,132,5.0,8.0,49,0.00,,,0.00,meteohub,2013-05-07 19:32:00,
2013-05-07 15:37:00,75.9,55.9,30.07,SE,136,5.0,8.0,50,0.00,,,0.00,meteohub,2013-05-07 19:37:00,
2013-05-07 15:42:00,75.0,54.0,30.07,SE,125,1.0,8.0,48,0.00,,,0.00,meteohub,2013-05-07 19:42:00,
2013-05-07 15:47:00,74.3,54.0,30.07,SE,130,3.0,8.0,49,0.00,,,0.00,meteohub,2013-05-07 19:47:00,
2013-05-07 15:52:00,74.1,54.3,30.07,South,173,2.0,5.0,50,0.00,,,0.00,meteohub,2013-05-07 19:52:00,
2013-05-07 15:57:00,74.8,54.3,30.07,ESE,113,2.0,3.0,49,0.00,,,0.00,meteohub,2013-05-07 19:57:00,
2013-05-07 16:02:00,75.9,54.3,30.07,SE,127,4.0,4.0,47,0.00,,,0.00,meteohub,2013-05-07 20:02:00,
2013-05-07 16:07:00,75.7,54.1,30.07,ESE,104,2.0,7.0,47,0.00,,,0.00,meteohub,2013-05-07 20:07:00,
2013-05-07 16:12:00,75.0,54.5,30.07,SSE,149,2.0,7.0,49,0.00,,,0.00,meteohub,2013-05-07 20:12:00,
2013-05-07 16:17:00,74.5,54.1,30.07,SE,132,1.0,7.0,49,0.00,,,0.00,meteohub,2013-05-07 20:17:00,
2013-05-07 16:22:00,74.5,54.7,30.07,South,175,1.0,5.0,50,0.00,,,0.00,meteohub,2013-05-07 20:22:00,
2013-05-07 16:27:00,73.9,55.8,30.07,SE,127,4.0,5.0,53,0.00,,,0.00,meteohub,2013-05-07 20:27:00,
2013-05-07 16:32:00,73.2,56.1,30.07,ESE,122,1.0,7.0,55,0.00,,,0.00,meteohub,2013-05-07 20:32:00,
2013-05-07 16:37:00,73.6,56.8,30.07,ESE,112,3.0,7.0,56,0.00,,,0.00,meteohub,2013-05-07 20:37:00,
2013-05-07 16:42:00,73.2,56.7,30.07,ESE,123,7.0,7.0,56,0.00,,,0.00,meteohub,2013-05-07 20:42:00,
2013-05-07 16:47:00,72.7,56.5,30.07,SE,130,2.0,8.0,57,0.00,,,0.00,meteohub,2013-05-07 20:47:00,
2013-05-07 16:52:00,73.2,57.6,30.07,SE,126,4.0,8.0,58,0.00,,,0.00,meteohub,2013-05-07 20:52:00,
2013-05-07 16:57:00,74.1,57.9,30.07,SE,127,2.0,8.0,57,0.00,,,0.00,meteohub,2013-05-07 20:57:00,
2013-05-07 17:02:00,75.4,57.6,30.07,West,273,4.0,7.0,54,0.00,,,0.00,meteohub,2013-05-07 21:02:00,
2013-05-07 17:07:00,76.3,57.9,30.07,West,272,1.0,6.0,53,0.00,,,0.00,meteohub,2013-05-07 21:07:00,
2013-05-07 17:12:00,75.9,57.6,30.07,ESE,114,2.0,6.0,53,0.00,,,0.00,meteohub,2013-05-07 21:12:00,
2013-05-07 17:17:00,75.0,57.2,30.07,SSE,150,4.0,6.0,54,0.00,,,0.00,meteohub,2013-05-07 21:17:00,
2013-05-07 17:22:00,73.2,56.7,30.07,WSW,251,0.0,5.0,56,0.00,,,0.00,meteohub,2013-05-07 21:22:00,
2013-05-07 17:27:00,72.9,57.2,30.07,SSW,207,1.0,6.0,58,0.00,,,0.00,meteohub,2013-05-07 21:27:00,
2013-05-07 17:32:00,72.7,57.0,30.07,SSE,148,4.0,6.0,58,0.00,,,0.00,meteohub,2013-05-07 21:32:00,
2013-05-07 17:37:00,72.7,57.0,30.07,SSE,148,1.0,5.0,58,0.00,,,0.00,meteohub,2013-05-07 21:37:00,
2013-05-07 17:42:00,73.0,56.8,30.07,West,275,3.0,6.0,57,0.00,,,0.00,meteohub,2013-05-07 21:42:00,
2013-05-07 17:47:00,72.9,57.7,30.07,SE,146,1.0,6.0,59,0.00,,,0.00,meteohub,2013-05-07 21:47:00,
2013-05-07 17:52:00,72.1,57.0,30.07,WSW,244,2.0,6.0,59,0.00,,,0.00,meteohub,2013-05-07 21:52:00,
2013-05-07 17:57:00,72.1,57.0,30.07,SW,215,0.0,6.0,59,0.00,,,0.00,meteohub,2013-05-07 21:57:00,
2013-05-07 18:02:00,72.3,57.2,30.07,WSW,240,0.0,6.0,59,0.00,,,0.00,meteohub,2013-05-07 22:02:00,
2013-05-07 18:07:00,72.1,57.0,30.07,SE,127,1.0,4.0,59,0.00,,,0.00,meteohub,2013-05-07 22:07:00,
2013-05-07 18:12:00,72.0,56.3,30.07,SSE,161,1.0,8.0,58,0.00,,,0.00,meteohub,2013-05-07 22:12:00,
2013-05-07 18:17:00,72.0,56.3,30.07,NE,46,2.0,8.0,58,0.00,,,0.00,meteohub,2013-05-07 22:17:00,
2013-05-07 18:22:00,72.1,56.1,30.07,SE,131,2.0,5.0,57,0.00,,,0.00,meteohub,2013-05-07 22:22:00,
2013-05-07 18:27:00,72.0,55.4,30.07,South,191,0.0,5.0,56,0.00,,,0.00,meteohub,2013-05-07 22:27:00,
2013-05-07 18:32:00,71.8,55.2,30.08,ESE,102,3.0,5.0,56,0.00,,,0.00,meteohub,2013-05-07 22:32:00,
2013-05-07 18:37:00,72.0,55.4,30.08,SE,127,3.0,5.0,56,0.00,,,0.00,meteohub,2013-05-07 22:37:00,
2013-05-07 18:42:00,71.8,55.2,30.08,ESE,115,0.0,7.0,56,0.00,,,0.00,meteohub,2013-05-07 22:42:00,
2013-05-07 18:47:00,71.4,54.9,30.08,SSE,149,0.0,7.0,56,0.00,,,0.00,meteohub,2013-05-07 22:47:00,
2013-05-07 18:52:00,71.4,55.4,30.08,SSE,165,1.0,6.0,57,0.00,,,0.00,meteohub,2013-05-07 22:52:00,
2013-05-07 18:57:00,71.1,55.6,30.09,SE,142,1.0,3.0,58,0.00,,,0.00,meteohub,2013-05-07 22:57:00,
2013-05-07 19:02:00,70.7,55.6,30.09,South,182,1.0,5.0,59,0.00,,,0.00,meteohub,2013-05-07 23:02:00,
2013-05-07 19:07:00,70.5,55.6,30.09,SW,236,0.0,5.0,59,0.00,,,0.00,meteohub,2013-05-07 23:07:00,
2013-05-07 19:12:00,70.2,55.6,30.09,South,169,0.0,5.0,60,0.00,,,0.00,meteohub,2013-05-07 23:12:00,
2013-05-07 19:17:00,70.0,55.4,30.09,SSE,155,1.0,5.0,60,0.00,,,0.00,meteohub,2013-05-07 23:17:00,
2013-05-07 19:22:00,69.6,55.0,30.09,SW,222,0.0,3.0,60,0.00,,,0.00,meteohub,2013-05-07 23:22:00,
2013-05-07 19:27:00,69.6,55.0,30.09,SE,129,2.0,3.0,60,0.00,,,0.00,meteohub,2013-05-07 23:27:00,
2013-05-07 19:32:00,69.4,54.9,30.10,SSW,213,2.0,4.0,60,0.00,,,0.00,meteohub,2013-05-07 23:32:00,
2013-05-07 19:37:00,69.3,55.2,30.10,South,175,0.0,4.0,61,0.00,,,0.00,meteohub,2013-05-07 23:37:00,
2013-05-07 19:42:00,69.1,55.6,30.10,SSW,198,0.0,4.0,62,0.00,,,0.00,meteohub,2013-05-07 23:42:00,
2013-05-07 19:47:00,68.7,55.2,30.11,SE,127,0.0,4.0,62,0.00,,,0.00,meteohub,2013-05-07 23:47:00,
2013-05-07 19:52:00,68.5,55.4,30.11,SSE,167,0.0,3.0,63,0.00,,,0.00,meteohub,2013-05-07 23:52:00,
2013-05-07 19:57:00,68.2,55.0,30.11,South,190,0.0,7.0,63,0.00,,,0.00,meteohub,2013-05-07 23:57:00,
2013-05-07 20:02:00,68.0,55.4,30.11,South,176,0.0,7.0,64,0.00,,,0.00,meteohub,2013-05-08 00:02:00,
2013-05-07 20:07:00,67.6,55.0,30.12,SW,217,0.0,3.0,64,0.00,,,0.00,meteohub,2013-05-08 00:07:00,
2013-05-07 20:12:00,67.3,54.7,30.12,NW,306,0.0,3.0,64,0.00,,,0.00,meteohub,2013-05-08 00:12:00,
2013-05-07 20:17:00,66.9,54.3,30.12,NW,315,1.0,3.0,64,0.00,,,0.00,meteohub,2013-05-08 00:17:00,
2013-05-07 20:22:00,66.7,54.7,30.12,WNW,294,0.0,2.0,65,0.00,,,0.00,meteohub,2013-05-08 00:22:00,
2013-05-07 20:27:00,66.6,54.5,30.12,West,269,0.0,2.0,65,0.00,,,0.00,meteohub,2013-05-08 00:27:00,
2013-05-07 20:32:00,66.4,54.3,30.12,West,269,0.0,3.0,65,0.00,,,0.00,meteohub,2013-05-08 00:32:00,
2013-05-07 20:37:00,65.8,54.1,30.12,West,269,0.0,3.0,66,0.00,,,0.00,meteohub,2013-05-08 00:37:00,
2013-05-07 20:42:00,65.7,54.0,30.12,West,269,0.0,2.0,66,0.00,,,0.00,meteohub,2013-05-08 00:42:00,
2013-05-07 20:47:00,65.7,54.3,30.13,West,269,0.0,1.0,67,0.00,,,0.00,meteohub,2013-05-08 00:47:00,
2013-05-07 20:52:00,65.1,54.0,30.13,West,269,0.0,1.0,67,0.00,,,0.00,meteohub,2013-05-08 00:52:00,
2013-05-07 20:57:00,64.9,54.1,30.13,West,269,0.0,1.0,68,0.00,,,0.00,meteohub,2013-05-08 00:57:00,
2013-05-07 21:02:00,64.9,54.1,30.13,West,269,0.0,1.0,68,0.00,,,0.00,meteohub,2013-05-08 01:02:00,
2013-05-07 21:07:00,64.6,54.1,30.13,West,269,0.0,1.0,69,0.00,,,0.00,meteohub,2013-05-08 01:07:00,
2013-05-07 21:12:00,64.4,54.3,30.13,West,269,0.0,0.0,70,0.00,,,0.00,meteohub,2013-05-08 01:12:00,
2013-05-07 21:17:00,64.0,54.1,30.13,West,269,0.0,1.0,70,0.00,,,0.00,meteohub,2013-05-08 01:17:00,
2013-05-07 21:22:00,64.0,54.5,30.14,West,269,0.0,1.0,71,0.00,,,0.00,meteohub,2013-05-08 01:22:00,
2013-05-07 21:27:00,63.9,54.0,30.14,West,269,0.0,1.0,70,0.00,,,0.00,meteohub,2013-05-08 01:27:00,
2013-05-07 21:32:00,63.7,54.1,30.14,West,269,0.0,1.0,71,0.00,,,0.00,meteohub,2013-05-08 01:32:00,
2013-05-07 21:37:00,63.3,54.1,30.14,West,269,0.0,0.0,72,0.00,,,0.00,meteohub,2013-05-08 01:37:00,
2013-05-07 21:42:00,63.1,54.0,30.14,West,269,0.0,0.0,72,0.00,,,0.00,meteohub,2013-05-08 01:42:00,
2013-05-07 21:47:00,63.0,54.1,30.14,West,269,0.0,1.0,73,0.00,,,0.00,meteohub,2013-05-08 01:47:00,
2013-05-07 21:52:00,62.8,54.0,30.14,West,269,0.0,1.0,73,0.00,,,0.00,meteohub,2013-05-08 01:52:00,
2013-05-07 21:57:00,62.8,54.3,30.14,West,269,0.0,1.0,74,0.00,,,0.00,meteohub,2013-05-08 01:57:00,
2013-05-07 22:02:00,62.8,54.3,30.14,West,269,0.0,1.0,74,0.00,,,0.00,meteohub,2013-05-08 02:02:00,
2013-05-07 22:07:00,62.4,54.3,30.14,West,269,0.0,1.0,75,0.00,,,0.00,meteohub,2013-05-08 02:07:00,
2013-05-07 22:12:00,62.4,54.3,30.14,West,269,0.0,1.0,75,0.00,,,0.00,meteohub,2013-05-08 02:12:00,
2013-05-07 22:17:00,62.2,54.5,30.15,West,269,0.0,1.0,76,0.00,,,0.00,meteohub,2013-05-08 02:17:00,
2013-05-07 22:22:00,62.1,54.3,30.15,West,269,0.0,1.0,76,0.00,,,0.00,meteohub,2013-05-08 02:22:00,
2013-05-07 22:27:00,61.9,54.3,30.15,West,273,0.0,1.0,76,0.00,,,0.00,meteohub,2013-05-08 02:27:00,
2013-05-07 22:32:00,61.7,54.5,30.15,West,270,0.0,1.0,77,0.00,,,0.00,meteohub,2013-05-08 02:32:00,
2013-05-07 22:37:00,61.5,54.3,30.15,West,278,0.0,1.0,77,0.00,,,0.00,meteohub,2013-05-08 02:37:00,
2013-05-07 22:42:00,61.5,54.7,30.15,West,278,0.0,2.0,78,0.00,,,0.00,meteohub,2013-05-08 02:42:00,
2013-05-07 22:47:00,61.3,54.5,30.14,West,278,0.0,2.0,78,0.00,,,0.00,meteohub,2013-05-08 02:47:00,
2013-05-07 22:52:00,61.2,54.3,30.15,West,269,0.0,2.0,78,0.00,,,0.00,meteohub,2013-05-08 02:52:00,
2013-05-07 22:57:00,61.0,54.5,30.15,West,269,0.0,2.0,79,0.00,,,0.00,meteohub,2013-05-08 02:57:00,
2013-05-07 23:02:00,60.8,54.3,30.15,West,269,0.0,2.0,79,0.00,,,0.00,meteohub,2013-05-08 03:02:00,
2013-05-07 23:07:00,60.6,54.1,30.15,West,269,0.0,2.0,79,0.00,,,0.00,meteohub,2013-05-08 03:07:00,
2013-05-07 23:12:00,60.6,54.1,30.15,West,269,0.0,1.0,79,0.00,,,0.00,meteohub,2013-05-08 03:12:00,
2013-05-07 23:17:00,60.3,54.1,30.15,West,269,0.0,1.0,80,0.00,,,0.00,meteohub,2013-05-08 03:17:00,
2013-05-07 23:22:00,60.3,54.1,30.15,West,269,0.0,1.0,80,0.00,,,0.00,meteohub,2013-05-08 03:22:00,
2013-05-07 23:27:00,59.7,54.0,30.15,West,269,0.0,1.0,81,0.00,,,0.00,meteohub,2013-05-08 03:27:00,
2013-05-07 23:32:00,59.5,54.0,30.15,West,269,0.0,1.0,82,0.00,,,0.00,meteohub,2013-05-08 03:32:00,
2013-05-07 23:37:00,59.5,54.0,30.15,West,269,0.0,1.0,82,0.00,,,0.00,meteohub,2013-05-08 03:37:00,
2013-05-07 23:42:00,59.4,53.8,30.15,West,269,0.0,0.0,82,0.00,,,0.00,meteohub,2013-05-08 03:42:00,
2013-05-07 23:47:00,59.2,53.6,30.16,West,269,0.0,0.0,82,0.00,,,0.00,meteohub,2013-05-08 03:47:00,
2013-05-07 23:52:00,59.0,53.8,30.16,West,269,0.0,0.0,83,0.00,,,0.00,meteohub,2013-05-08 03:52:00,
2013-05-07 23:57:00,58.8,53.6,30.16,West,269,0.0,0.0,83,0.00,,,0.00,meteohub,2013-05-08 03:57:00,